Terminal Aerodrome Forecast
Issued by NWS Binghamton, NY

Home | Current Version | Previous Version | Text Only | Print | Product List | Glossary On
Versions: 1 2 3 4 5 6 7 8 9 10 11 12 13 14 15 16 17 18 19
000
FTUS41 KBGM 211306 AAA
TAFAVP
TAF AMD
KAVP 211306Z 2113/2212 VRB03KT P6SM SCT003
     FM211600 29008KT P6SM BKN050
     FM220000 VRB03KT P6SM FEW060 BKN200
      TEMPO 2209/2212 3SM BR=

USA.gov is the U.S. government's official web portal to all federal, state and local government web resources and services.